N5TM-4 Weather Reports


Display with metric or nautical units.
time (UTC)temp
F
wind
direction
speed
MPH
gust
MPH
rain 1hr
in
rain 24hr
in
rain mn
in
humidity
%
barometer
mb
20260905040045 81 188 0.0 4.0 0.00 0.14 0.14 83 1013.6
20260905035544 81 188 0.0 4.0 0.00 0.14 0.14 83 1013.7
20260905035045 81 170 0.0 6.0 0.00 0.14 0.14 83 1013.6
20260905034544 81 170 1.0 7.0 0.00 0.14 0.14 83 1013.7
20260905034048 81 171 0.0 7.0 0.00 0.14 0.14 83 1013.6
20260905033544 81 161 2.0 5.0 0.00 0.14 0.14 83 1013.7
20260905033044 81 167 2.0 6.0 0.00 0.14 0.14 83 1013.6
20260905032544 81 162 2.0 6.0 0.00 0.14 0.14 83 1013.6
20260905032044 81 146 2.0 6.0 0.00 0.14 0.14 82 1013.7
20260905031545 82 161 1.0 5.0 0.00 0.14 0.14 82 1013.7
20260905031043 82 160 1.0 5.0 0.00 0.14 0.14 82 1013.8
20260905030543 82 170 0.0 3.0 0.00 0.14 0.14 82 1013.8
20260905030043 82 170 1.0 3.0 0.00 0.14 0.14 81 1013.9
20260905025545 82 170 0.0 3.0 0.00 0.14 0.14 81 1013.8
20260905025043 82 170 0.0 3.0 0.00 0.14 0.14 80 1013.7
20260905024548 82 169 1.0 3.0 0.00 0.14 0.14 80 1013.6
20260905024042 82 169 1.0 3.0 0.00 0.14 0.14 79 1013.6
20260905023543 82 169 0.0 3.0 0.00 0.14 0.14 79 1013.5
20260905023042 82 169 1.0 4.0 0.00 0.14 0.14 78 1013.5
20260905022542 82 169 1.0 3.0 0.00 0.14 0.14 78 1013.4
20260905022042 82 169 1.0 2.0 0.00 0.14 0.14 77 1013.3
20260905021544 82 169 1.0 3.0 0.00 0.14 0.14 77 1013.3
20260905021041 82 169 1.0 3.0 0.00 0.14 0.14 77 1013.2
20260905020541 82 169 1.0 3.0 0.00 0.14 0.14 76 1013.1
20260905020041 82 170 0.0 2.0 0.00 0.14 0.14 76 1013.0
20260905015541 82 170 0.0 2.0 0.00 0.14 0.14 76 1013.1
20260905015043 82 170 0.0 4.0 0.00 0.14 0.14 75 1013.0
20260905014551 83 103 1.0 3.0 0.00 0.14 0.14 75 1012.9
20260905014040 83 92 1.0 3.0 0.00 0.14 0.14 75 1012.9
20260905013540 83 92 0.0 2.0 0.00 0.14 0.14 74 1012.8
20260905013040 83 92 0.0 4.0 0.00 0.14 0.14 74 1012.8
20260905012543 83 92 1.0 4.0 0.00 0.14 0.14 73 1012.7
20260905012039 83 101 1.0 6.0 0.00 0.14 0.14 72 1012.7
20260905011539 83 101 1.0 6.0 0.00 0.14 0.14 72 1012.6
20260905011039 83 86 1.0 4.0 0.00 0.14 0.14 71 1012.6
20260905010542 84 64 0.0 4.0 0.00 0.14 0.14 71 1012.7
20260905010039 84 88 0.0 6.0 0.00 0.14 0.14 70 1012.6
20260905005541 84 106 2.0 7.0 0.00 0.14 0.14 68 1012.6
20260905005038 85 108 2.0 9.0 0.00 0.14 0.14 68 1012.6
20260905004538 86 103 4.0 9.0 0.00 0.14 0.14 68 1012.8
20260905004038 87 90 3.0 7.0 0.00 0.14 0.14 68 1012.6
20260905003539 87 117 2.0 5.0 0.00 0.14 0.14 68 1012.6
20260905003038 87 128 2.0 6.0 0.00 0.14 0.14 68 1012.5
20260905002537 87 156 2.0 6.0 0.00 0.14 0.14 68 1012.2
20260905002037 87 157 2.0 6.0 0.00 0.14 0.14 68 1012.1
20260905001537 87 153 2.0 5.0 0.00 0.14 0.14 68 1012.1
20260905001037 88 167 2.0 6.0 0.00 0.14 0.14 68 1012.0
20260905000541 88 182 1.0 4.0 0.00 0.14 0.14 68 1011.9
20260905000038 88 206 1.0 4.0 0.00 0.14 0.14 68 1011.9
20260904235536 88 167 2.0 7.0 0.00 0.14 0.14 67 1012.0
20260904235038 88 155 2.0 9.0 0.00 0.14 0.14 67 1012.0
20260904234536 88 165 2.0 9.0 0.00 0.14 0.14 66 1012.0
20260904234038 88 150 2.0 8.0 0.00 0.14 0.14 65 1012.0
20260904233536 89 140 3.0 8.0 0.00 0.14 0.14 63 1012.0
20260904233036 89 163 0.0 5.0 0.00 0.14 0.14 63 1012.0
20260904232536 89 161 1.0 5.0 0.00 0.14 0.14 63 1012.0
20260904232035 89 132 1.0 5.0 0.00 0.14 0.14 62 1011.9
20260904231535 89 153 2.0 7.0 0.00 0.14 0.14 62 1011.8
20260904231035 90 152 3.0 7.0 0.00 0.14 0.14 61 1011.8
20260904230535 90 173 2.0 5.0 0.00 0.14 0.14 61 1011.9
20260904230036 91 134 2.0 7.0 0.00 0.14 0.14 60 1011.9
20260904225535 91 200 4.0 7.0 0.00 0.14 0.14 58 1011.9
20260904225034 92 188 3.0 6.0 0.00 0.14 0.14 56 1011.9
20260904224533 92 176 1.0 5.0 0.00 0.14 0.14 56 1012.0
20260904224033 92 197 1.0 3.0 0.00 0.14 0.14 55 1012.0
20260904223533 92 202 0.0 3.0 0.00 0.14 0.14 55 1012.0
20260904223043 92 202 1.0 4.0 0.00 0.14 0.14 56 1012.0
20260904222533 91 202 1.0 4.0 0.00 0.14 0.14 56 1012.0
20260904222032 91 187 2.0 4.0 0.00 0.14 0.14 56 1012.0
20260904221543 91 15 1.0 4.0 0.00 0.14 0.14 57 1012.1
20260904221030 91 182 0.0 7.0 0.00 0.14 0.14 58 1012.2
20260904220530 91 153 3.0 7.0 0.00 0.14 0.14 58 1012.2
20260904220030 91 51 1.0 7.0 0.00 0.14 0.14 59 1012.2
20260904215529 91 141 4.0 7.0 0.00 0.19 0.14 59 1012.2
20260904215029 91 48 1.0 3.0 0.00 0.19 0.14 59 1012.2
20260904214528 91 103 1.0 3.0 0.00 0.19 0.14 60 1012.2
20260904214028 91 30 1.0 5.0 0.00 0.19 0.14 60 1012.2
20260904213529 90 173 2.0 5.0 0.00 0.19 0.14 60 1012.3
20260904213027 90 106 2.0 4.0 0.00 0.19 0.14 60 1012.4
20260904212526 90 134 1.0 6.0 0.00 0.19 0.14 60 1012.6
20260904212026 91 146 2.0 6.0 0.00 0.19 0.14 60 1012.6
20260904211533 90 167 2.0 7.0 0.00 0.19 0.14 60 1012.6
20260904211025 91 167 2.0 7.0 0.00 0.19 0.14 61 1012.6
20260904210525 90 26 0.0 4.0 0.00 0.19 0.14 62 1012.6
20260904210025 90 109 2.0 4.0 0.00 0.19 0.14 62 1012.7
20260904205525 91 163 1.0 6.0 0.00 0.26 0.14 62 1012.7
20260904205028 91 174 2.0 6.0 0.00 0.26 0.14 62 1012.8
20260904204527 91 121 1.0 7.0 0.00 0.26 0.14 60 1012.9
20260904204024 91 144 2.0 7.0 0.00 0.26 0.14 61 1013.1
20260904203524 91 163 2.0 7.0 0.00 0.26 0.14 61 1013.2
20260904203030 90 142 1.0 4.0 0.00 0.26 0.14 65 1013.3
20260904202522 89 200 1.0 4.0 0.00 0.26 0.14 64 1013.3
20260904202025 89 76 0.0 7.0 0.00 0.26 0.14 66 1013.4
20260904201529 89 139 2.0 7.0 0.00 0.26 0.14 67 1013.4
20260904201022 88 301 1.0 4.0 0.00 0.26 0.14 72 1013.5
20260904200522 87 301 1.0 4.0 0.00 0.26 0.14 72 1013.4
20260904200022 86 5 1.0 4.0 0.00 0.26 0.14 72 1013.5
20260904195522 86 142 0.0 4.0 0.01 0.31 0.14 72 1013.6
20260904195023 85 92 0.0 3.0 0.01 0.31 0.14 74 1013.7
20260904194550 84 95 0.0 6.0 0.01 0.31 0.14 77 1013.9
20260904194021 83 63 2.0 6.0 0.01 0.31 0.14 78 1014.0
20260904193521 83 20 2.0 5.0 0.01 0.31 0.14 80 1014.0
20260904193035 82 49 1.0 5.0 0.01 0.31 0.14 82 1014.0
20260904192521 82 5 2.0 4.0 0.01 0.31 0.14 85 1014.0
20260904192021 82 64 0.0 0.0 0.01 0.31 0.14 85 1014.0
20260904191521 82 64 0.0 2.0 0.01 0.31 0.14 84 1014.0
20260904191024 82 63 1.0 2.0 0.01 0.31 0.14 83 1014.1
20260904190520 82 63 0.0 2.0 0.01 0.31 0.14 83 1014.1
20260904190020 82 59 0.0 3.0 0.01 0.31 0.14 83 1014.1
20260904185519 82 59 1.0 3.0 0.00 0.46 0.13 82 1014.3
20260904185019 82 142 1.0 5.0 0.00 0.46 0.13 82 1014.5
20260904184519 82 156 2.0 6.0 0.00 0.46 0.13 81 1014.8
20260904184019 83 111 2.0 9.0 0.00 0.46 0.13 79 1014.9
20260904183519 84 168 3.0 9.0 0.00 0.46 0.13 75 1015.0
20260904183019 85 97 1.0 3.0 0.00 0.46 0.13 73 1014.9
20260904182518 85 360 0.0 2.0 0.00 0.46 0.13 73 1014.9
20260904182018 85 360 1.0 3.0 0.00 0.46 0.13 72 1015.0
20260904181519 85 360 0.0 4.0 0.00 0.46 0.13 73 1015.1
20260904181018 85 355 0.0 4.0 0.00 0.46 0.13 72 1015.1
20260904180519 85 59 1.0 6.0 0.00 0.46 0.13 72 1015.3
20260904180019 85 59 1.0 6.0 0.00 0.46 0.13 72 1015.4
20260904175519 84 17 1.0 4.0 0.00 0.46 0.13 74 1015.3
20260904175017 83 47 1.0 5.0 0.00 0.46 0.13 74 1015.2
20260904174517 82 72 2.0 8.0 0.00 0.46 0.13 77 1015.3
20260904174016 81 340 2.0 8.0 0.00 0.46 0.13 77 1015.4
20260904173516 81 327 2.0 8.0 0.00 0.46 0.13 78 1015.4
20260904173024 81 348 4.0 8.0 0.00 0.46 0.13 82 1015.5
20260904172516 81 32 2.0 4.0 0.01 0.46 0.13 85 1015.4
20260904172016 81 13 1.0 6.0 0.02 0.46 0.13 84 1015.3
20260904171524 81 105 2.0 6.0 0.04 0.46 0.13 84 1015.4
20260904171015 81 119 2.0 3.0 0.10 0.46 0.13 83 1015.7
20260904170515 82 49 1.0 3.0 0.12 0.46 0.13 83 1015.9
20260904170014 82 180 1.0 3.0 0.12 0.46 0.13 83 1015.9
20260904165513 82 180 0.0 2.0 0.12 0.46 0.13 83 1015.5
20260904165013 82 180 0.0 2.0 0.12 0.46 0.13 84 1015.3
20260904164513 82 180 0.0 2.0 0.12 0.46 0.13 84 1015.4
20260904164017 83 180 0.0 2.0 0.12 0.46 0.13 84 1015.5
20260904163512 83 180 0.0 3.0 0.12 0.46 0.13 83 1015.3
20260904163012 83 180 1.0 7.0 0.11 0.45 0.12 80 1015.2
20260904162512 84 178 1.0 7.0 0.11 0.45 0.12 81 1015.5
20260904162014 84 216 1.0 10.0 0.10 0.44 0.11 80 1015.2
20260904161510 86 196 4.0 10.0 0.08 0.42 0.09 77 1015.2
20260904161008 88 178 4.0 11.0 0.00 0.34 0.01 75 1015.0
20260904160507 89 195 4.0 8.0 0.00 0.34 0.01 70 1014.8
20260904160006 90 126 1.0 5.0 0.00 0.34 0.01 70 1014.7
20260904155506 90 126 2.0 6.0 0.00 0.34 0.01 68 1014.6
20260904155005 91 167 3.0 6.0 0.00 0.34 0.01 67 1014.5
20260904154505 91 165 2.0 5.0 0.00 0.34 0.01 66 1014.5
20260904154005 92 149 1.0 7.0 0.00 0.34 0.01 67 1014.6
20260904153503 93 172 2.0 7.0 0.00 0.34 0.01 65 1014.4
20260904153010 92 108 2.0 8.0 0.00 0.34 0.01 64 1014.3
20260904152503 92 116 3.0 8.0 0.00 0.34 0.01 65 1014.4
20260904152002 93 126 2.0 5.0 0.00 0.34 0.01 66 1014.5
20260904151610 92 78 2.0 9.0 0.00 0.34 0.01 67 1014.5
20260904151059 92 180 3.0 9.0 0.00 0.34 0.01 67 1014.4
20260904150558 91 84 3.0 7.0 0.00 0.34 0.01 67 1014.3
20260904150056 92 171 2.0 7.0 0.00 0.34 0.01 67 1014.3
20260904145556 91 53 1.0 4.0 0.00 0.34 0.01 69 1014.4
20260904145053 91 165 2.0 7.0 0.00 0.34 0.01 70 1014.4
20260904144554 89 165 2.0 7.0 0.00 0.34 0.01 72 1014.4
20260904144056 90 159 3.0 7.0 0.00 0.34 0.01 71 1014.3
20260904143556 90 173 1.0 6.0 0.00 0.34 0.01 73 1014.3
20260904143051 89 142 2.0 6.0 0.00 0.34 0.01 73 1014.3
20260904142550 88 136 0.0 5.0 0.00 0.34 0.01 77 1014.4
20260904142048 88 134 1.0 5.0 0.00 0.34 0.01 78 1014.4
20260904141615 88 95 1.0 6.0 0.00 0.34 0.01 77 1014.3
20260904141046 87 86 2.0 5.0 0.00 0.34 0.01 79 1014.3
20260904140544 87 123 2.0 5.0 0.00 0.34 0.01 80 1014.4
20260904140059 86 101 2.0 6.0 0.00 0.34 0.01 82 1014.3
20260904135542 85 122 3.0 6.0 0.00 0.34 0.01 82 1014.4
20260904135042 85 118 2.0 6.0 0.00 0.34 0.01 83 1014.3
20260904134543 85 97 1.0 4.0 0.00 0.34 0.01 84 1014.4
20260904134038 84 80 2.0 4.0 0.00 0.34 0.01 85 1014.4
20260904133536 84 145 1.0 6.0 0.00 0.34 0.01 85 1014.4
20260904133041 83 144 1.0 6.0 0.00 0.34 0.01 87 1014.2
20260904132535 83 104 2.0 6.0 0.00 0.34 0.01 88 1014.3
20260904132033 82 123 1.0 6.0 0.00 0.34 0.01 89 1014.2
20260904131531 81 116 1.0 4.0 0.00 0.34 0.01 91 1014.1
20260904131029 81 98 1.0 4.0 0.00 0.34 0.01 93 1014.0
20260904130528 80 94 1.0 4.0 0.00 0.34 0.01 93 1014.0
20260904130027 80 89 1.0 3.0 0.00 0.34 0.01 93 1014.0
20260904125528 79 87 1.0 3.0 0.00 0.34 0.01 93 1014.0
20260904125025 79 179 0.0 1.0 0.00 0.34 0.01 93 1013.9
20260904124524 79 179 0.0 2.0 0.01 0.34 0.01 93 1013.8
20260904124026 79 179 0.0 2.0 0.01 0.34 0.01 93 1013.6
20260904123526 79 179 0.0 2.0 0.01 0.34 0.01 93 1013.6
20260904123023 79 179 0.0 1.0 0.01 0.34 0.01 93 1013.5
20260904122523 79 179 0.0 1.0 0.01 0.34 0.01 93 1013.5
20260904122022 79 179 0.0 1.0 0.01 0.34 0.01 93 1013.5
20260904121528 78 179 0.0 1.0 0.01 0.34 0.01 93 1013.4
20260904121023 79 179 0.0 2.0 0.01 0.34 0.01 93 1013.3
20260904120520 78 179 0.0 2.0 0.01 0.34 0.01 93 1013.3
20260904120020 79 179 0.0 2.0 0.01 0.34 0.01 93 1013.3
20260904115520 79 179 0.0 2.0 0.01 0.34 0.01 93 1013.3
20260904115020 79 179 0.0 1.0 0.01 0.34 0.01 92 1013.3
20260904114520 79 179 0.0 1.0 0.00 0.33 0.00 92 1013.3
20260904114023 79 179 0.0 1.0 0.00 0.33 0.00 92 1013.3
20260904113519 78 179 0.0 1.0 0.00 0.33 0.00 92 1013.4
20260904113031 78 179 0.0 1.0 0.00 0.33 0.00 92 1013.2
20260904112519 78 179 0.0 1.0 0.00 0.33 0.00 92 1013.2
20260904112021 79 179 0.0 1.0 0.00 0.33 0.00 92 1013.3
20260904111524 79 179 0.0 1.0 0.00 0.33 0.00 92 1013.3
20260904111027 79 179 0.0 1.0 0.00 0.33 0.00 92 1013.2
20260904110520 79 179 0.0 1.0 0.00 0.33 0.00 92 1013.3
20260904110018 79 179 0.0 1.0 0.00 0.33 0.00 92 1013.2
20260904105518 79 179 0.0 1.0 0.00 0.33 0.00 92 1013.1
20260904105017 79 179 0.0 1.0 0.00 0.33 0.00 92 1013.1
20260904104517 79 179 0.0 2.0 0.00 0.33 0.00 92 1013.0
20260904104016 79 179 0.0 2.0 0.00 0.33 0.00 92 1013.0
20260904103516 79 179 0.0 2.0 0.00 0.33 0.00 92 1013.0
20260904103016 79 179 0.0 2.0 0.00 0.33 0.00 92 1013.0
20260904102516 79 179 1.0 2.0 0.00 0.33 0.00 92 1012.9
20260904102015 79 179 0.0 2.0 0.00 0.33 0.00 92 1012.9
20260904101516 79 179 0.0 2.0 0.00 0.33 0.00 92 1012.9
20260904101015 79 179 0.0 2.0 0.00 0.33 0.00 92 1012.9
20260904100515 79 179 0.0 2.0 0.00 0.33 0.00 92 1012.8
20260904100015 79 179 0.0 1.0 0.00 0.33 0.00 92 1012.8
20260904095518 79 179 0.0 1.0 0.00 0.33 0.00 92 1012.8
20260904095015 79 179 0.0 1.0 0.00 0.33 0.00 92 1012.8
20260904094514 79 179 0.0 1.0 0.00 0.33 0.00 92 1012.7
20260904094014 79 179 0.0 2.0 0.00 0.33 0.00 92 1012.7
20260904093517 79 179 0.0 2.0 0.00 0.33 0.00 92 1012.7
20260904093015 79 179 0.0 2.0 0.00 0.33 0.00 92 1012.6
20260904092516 79 179 0.0 1.0 0.00 0.33 0.00 92 1012.6
20260904092013 79 179 0.0 1.0 0.00 0.33 0.00 92 1012.6
20260904091514 79 179 0.0 1.0 0.00 0.33 0.00 92 1012.6
20260904091013 79 179 0.0 1.0 0.00 0.33 0.00 92 1012.6
20260904090512 79 179 0.0 1.0 0.00 0.33 0.00 92 1012.7
20260904090012 79 179 0.0 0.0 0.00 0.33 0.00 92 1012.7
20260904085513 79 179 0.0 0.0 0.00 0.33 0.00 91 1012.7
20260904085011 79 179 0.0 0.0 0.00 0.33 0.00 91 1012.7
20260904084512 79 179 0.0 0.0 0.00 0.33 0.00 91 1012.7
20260904084010 79 179 0.0 0.0 0.00 0.33 0.00 91 1012.7
20260904083510 79 179 0.0 0.0 0.00 0.33 0.00 91 1012.7
20260904083014 79 179 0.0 0.0 0.00 0.33 0.00 91 1012.7
20260904082510 79 179 0.0 0.0 0.00 0.33 0.00 91 1012.7
20260904082009 79 179 0.0 0.0 0.00 0.33 0.00 91 1012.7
20260904081514 79 179 0.0 0.0 0.00 0.33 0.00 91 1012.7
20260904081008 79 179 0.0 0.0 0.00 0.33 0.00 91 1012.8
20260904080508 79 179 0.0 0.0 0.00 0.33 0.00 91 1012.8
20260904080008 79 179 0.0 0.0 0.00 0.33 0.00 91 1012.8
20260904075507 79 179 0.0 1.0 0.00 0.33 0.00 91 1012.8
20260904075009 79 179 0.0 1.0 0.00 0.33 0.00 91 1012.8
20260904074511 79 179 0.0 0.0 0.00 0.33 0.00 90 1012.8
20260904074007 79 179 0.0 0.0 0.00 0.33 0.00 90 1012.8
20260904073510 79 179 0.0 0.0 0.00 0.33 0.00 90 1013.0
20260904073007 79 179 0.0 2.0 0.00 0.33 0.00 90 1013.0
20260904072506 79 179 0.0 2.0 0.00 0.33 0.00 91 1012.9
20260904072006 79 179 0.0 2.0 0.00 0.33 0.00 91 1012.9
20260904071505 79 179 0.0 1.0 0.00 0.33 0.00 91 1013.0
20260904071004 79 179 0.0 1.0 0.00 0.33 0.00 91 1013.1
20260904070503 79 179 0.0 1.0 0.00 0.33 0.00 91 1013.1
20260904070004 79 179 0.0 2.0 0.00 0.33 0.00 91 1013.1
20260904065504 79 179 0.0 2.0 0.00 0.33 0.00 91 1013.1
20260904065003 79 179 0.0 3.0 0.00 0.33 0.00 91 1013.1
20260904064502 79 179 0.0 3.0 0.00 0.33 0.00 91 1013.1
20260904064001 79 179 1.0 3.0 0.00 0.33 0.00 91 1013.3
20260904063501 79 188 1.0 4.0 0.00 0.33 0.00 91 1013.3
20260904063001 79 159 1.0 5.0 0.00 0.33 0.00 91 1013.2
20260904062601 79 155 1.0 5.0 0.00 0.33 0.00 91 1013.2
20260904062100 79 155 1.0 3.0 0.00 0.33 0.00 91 1013.2
20260904061600 79 155 1.0 5.0 0.00 0.33 0.00 91 1013.2
20260904061103 79 155 1.0 5.0 0.00 0.33 0.00 91 1013.1
20260904060702 79 155 1.0 3.0 0.00 0.33 0.00 91 1013.2
20260904060059 79 155 0.0 2.0 0.00 0.33 0.00 91 1013.1
20260904055558 79 155 0.0 2.0 0.00 0.33 0.00 91 1013.1
20260904055101 79 155 1.0 2.0 0.00 0.33 0.00 91 1013.1
20260904054559 79 155 1.0 3.0 0.00 0.33 0.00 91 1013.1
20260904054101 79 155 1.0 3.0 0.00 0.33 0.00 91 1013.1
20260904053556 79 155 1.0 3.0 0.00 0.33 0.00 91 1013.0
20260904053100 79 155 0.0 3.0 0.00 0.33 0.00 91 1013.1
20260904052558 79 155 1.0 3.0 0.00 0.33 0.00 91 1013.1
20260904052055 79 155 0.0 2.0 0.00 0.33 0.00 91 1013.0
20260904051554 79 155 0.0 2.0 0.00 0.33 0.00 91 1013.0
20260904051051 79 155 0.0 2.0 0.00 0.33 0.00 91 1013.1
20260904050550 79 155 0.0 2.0 0.00 0.33 0.00 91 1013.1
20260904050103 80 155 0.0 2.0 0.00 0.33 0.00 91 1013.1
20260904045549 80 155 0.0 3.0 0.00 0.33 0.33 91 1013.1
20260904045049 80 155 1.0 3.0 0.00 0.33 0.33 90 1013.1
20260904044555 80 155 0.0 3.0 0.00 0.33 0.33 90 1013.1
20260904044048 80 155 1.0 3.0 0.00 0.33 0.33 90 1013.2
20260904043548 80 155 0.0 5.0 0.00 0.33 0.33 90 1013.1
20260904043048 80 155 0.0 5.0 0.00 0.33 0.33 90 1013.1
20260904042548 80 155 0.0 3.0 0.00 0.33 0.33 90 1013.0
20260904042051 80 155 1.0 3.0 0.00 0.33 0.33 89 1013.0
20260904041549 80 155 1.0 5.0 0.00 0.33 0.33 89 1013.0
20260904041047 80 155 1.0 5.0 0.00 0.33 0.33 89 1013.1
20260904040546 80 132 1.0 5.0 0.00 0.33 0.33 89 1013.1